Regional Weather Roundup
Issued by NWS

Home | Current Version | Previous Version | Graphics & Text | Print | Product List | Glossary On
Versions: 1 2 3 4 5 6 7 8 9 10 11 12 13 14 15 16 17 18 19 20 21 22 23 24 25 26 27 28 29 30 31 32 33 34 35 36 37 38 39 40 41 42 43 44 45 46 47 48 49 50
360
ASUS43 KDTX 081910
RWRMI
MICHIGAN HOURLY REGIONAL WEATHER ROUNDUP
NATIONAL WEATHER SERVICE DETROIT/PONTIAC MI
200 PM EST MON FEB 08 2016

NOTE: "FAIR" INDICATES FEW OR NO CLOUDS BELOW 12,000 FEET WITH NO
SIGNIFICANT WEATHER AND/OR OBSTRUCTION TO VISIBILITY.

MIZ047>049-052>055-059>063-066>070-074>076-081>083-082000-
SOUTHEAST LOWER MICHIGAN

CITY           SKY/WX    TMP DP  RH WIND       PRES   REMARKS
ADRIAN         PTSUNNY   41  27  57 NW10      29.56F
ALMA           CLOUDY    40  30  65 W10G16    29.57F WCI  34
ANN ARBOR      CLOUDY    41  28  60 N7        29.55F
BAD AXE        CLOUDY    39  33  78 NW5       29.56S
CARO           CLOUDY    41  32  70 W6        29.55F
DETROIT CITY   CLOUDY    40  27  59 NW6       29.56F
DETROIT        CLOUDY    41  28  60 W8        29.57F
FLINT          CLOUDY    41  30  65 W9        29.57S
GROSSE ILE     CLOUDY    41  30  65 CALM      29.55F
HILLSDALE      PTSUNNY   38  27  65 W9        29.56S WCI  31
HOWELL         CLOUDY    39  32  75 W6        29.56S WCI  35

CITY           SKY/WX    TMP DP  RH WIND       PRES   REMARKS
JACKSON        CLOUDY    38  25  59 W6        29.56F WCI  33
LAMBERTVILLE   PTSUNNY   42  30  63 N5        29.57F
LANSING        PTSUNNY   39  28  64 W9        29.57F WCI  33
LAPEER         CLOUDY    39  30  69 W3        29.55F
MASON          CLOUDY    39  28  64 W9        29.56F WCI  33
MONROE         CLOUDY    40  30  66 NW6       29.56F
MT. CLEMENS    DRIZZLE   40  33  77 W7        29.54F WCI  35
PONTIAC        CLOUDY    39  28  64 NW8       29.54F WCI  33
PORT HOPE        N/A     35  32  88 NW6       29.55F WCI  30
PORT HURON     LGT RAIN  37  36  93 CALM      29.56S
TRI CITIES     PTSUNNY   41  29  62 SW8       29.56F
MIDLAND        FAIR      42  27  57 CALM      29.55F
TROY           CLOUDY    41  29  61 NW3       29.57F
SAGINAW HB     PTSUNNY   41  32  70 W9        29.56F
$$
MIZ043>046-050>051-056>058-064>065-071>073-077>080-082000-
SOUTHWEST LOWER MICHIGAN

CITY           SKY/WX    TMP DP  RH WIND       PRES   REMARKS
BATTLE CREEK   CLOUDY    35  28  75 S6        29.58F WCI  30
BENTON HARBOR  LGT SNOW  33  29  85 W10       29.62S FOG     WCI  25
BIG RAPIDS     MOSUNNY   37  27  69 NW7       29.56F WCI  31
COLDWATER      CLOUDY    36  29  76 SW7       29.59S WCI  30
FREMONT        CLOUDY    37  28  68 CALM      29.58S
HOLLAND        CLOUDY    37  31  78 SW9       29.59F WCI  30
GRAND RAPIDS   PTSUNNY   40  28  62 W8        29.58F WCI  34
IONIA          CLOUDY    38  27  63 SW8       29.56F WCI  33
KALAMAZOO      CLOUDY    37  26  64 W8        29.59F WCI  31
LUDINGTON      PTSUNNY   38  29  71 W3        29.59F
MARSHALL       PTSUNNY   37  28  71 W10       29.57S WCI  29
MOUNT PLEASANT PTSUNNY   41  26  56 W5        29.56S
MUSKEGON       PTSUNNY   41  31  67 W9        29.59S
SOUTH HAVEN    CLOUDY    35  33  92 W13G18    29.60S WCI  26
$$
MIZ016>042-082000-
NORTHERN LOWER MICHIGAN

CITY           SKY/WX    TMP DP  RH WIND       PRES   REMARKS
ALPENA         CLOUDY    40  30  67 N5        29.57F
BEAVER ISLAND  CLOUDY    33  30  89 NW8       29.60F WCI  26
BELLAIRE       CLOUDY    41  28  60 W3        29.58F
CADILLAC       PTSUNNY   38  25  59 W9        29.54F WCI  32
CHARLEVOIX     CLOUDY    37  33  82 W6        29.61F WCI  33
FRANKFORT      CLOUDY    38  32  79 W5        29.59F WCI  34
GAYLORD        CLOUDY    38  27  64 CALM      29.55F
GRAYLING       CLOUDY    37  28  69 NW5       29.56F WCI  34
HARBOR SPRINGS CLOUDY    37  31  81 SW7       29.58S WCI  31
HOUGHTON LAKE  MOSUNNY   38  25  59 W5        29.55F WCI  34
MANISTEE       CLOUDY    37  27  65 CALM      29.60S
OSCODA         CLOUDY    37  32  82 E6        29.55F WCI  32
PELLSTON       CLOUDY    37  31  78 NW13      29.58F WCI  29
ROGERS CITY    MOSUNNY   36  32  85 N5        29.58F WCI  32
TRAVERSE CITY  CLOUDY    39  30  70 N3        29.57F
$$
MIZ007>008-015-082000-
EASTERN UPPER MICHIGAN

CITY           SKY/WX    TMP DP  RH WIND       PRES   REMARKS
KINROSS        CLOUDY    36  36 100 E8        29.58S WCI  29
MACKINAC ISLAN MOSUNNY   39  32  75 CALM      29.57F
NEWBERRY       CLOUDY    32  29  90 NW9       29.60S WCI  24
S. S. MARIE    CLOUDY    35  32  88 SE3       29.59S FOG
MUNISING         N/A     25  19  78 NW18G28   29.67S WCI  11
$$
MIZ004>006-011>014-085-082000-
CENTRAL UPPER MICHIGAN

CITY           SKY/WX    TMP DP  RH WIND       PRES   REMARKS
MANISTIQUE     CLOUDY    29  24  80 NW17G23   29.62S WCI  17
ESCANABA       CLOUDY    28  21  74 NW10G16   29.65S WCI  19
MENOMINEE      CLOUDY    28  23  80 N12       29.64S WCI  18
SAWYER-GWINN   LGT SNOW  21  16  79 N16       29.65S WCI   7
$$
MIZ001>003-009>011-084-082000-
WESTERN UPPER MICHIGAN

CITY           SKY/WX    TMP DP  RH WIND       PRES   REMARKS
IRON MOUNTAIN  LGT SNOW  22  15  75 N13       29.65S VSB 1   WCI  10
HOUGHTON       SNOW      15   9  76 NW16      29.71S VSB 1/2 WCI  -1
COPPER HARBOR    N/A     17  13  84 N22       29.72S WCI   0
IRONWOOD       CLOUDY    16  10  79 NW13      29.75S WCI   2
$$

ABBREVIATIONS USED IN REMARKS
   TC - TEMPERATURE IN CELSIUS
  WCI - WIND CHILL INDEX
   HX - HEAT INDEX
  VSB - VISIBILITY





USA.gov is the U.S. government's official web portal to all federal, state and local government web resources and services.